Regional Weather Roundup
Issued by NWS

Home | Current Version | Previous Version | Graphics & Text | Print | Product List | Glossary On
Versions: 1 2 3 4 5 6 7 8 9 10 11 12 13 14 15 16 17 18 19 20 21 22 23 24 25 26 27 28
000
ASUS45 KSLC 251910
RWRUT

UTAH REGIONAL WEATHER ROUNDUP
NATIONAL WEATHER SERVICE SALT LAKE CITY UT
100 PM MDT FRI MAY 25 2018

UTZ001>011-023>025-252000-

NORTHERN UTAH

CITY           SKY/WX    TMP DP  RH WIND       PRES   REMARKS
BRIGHAM CITY   SUNNY     80  33  18 S5        29.97F
HILL AFB       SUNNY     80  37  22 S10       29.98F
LOGAN          SUNNY     75  48  38 CALM      29.96F
OGDEN          SUNNY     81  34  18 VRB7      29.96F
SALT LAKE CITY MOSUNNY   84  30  14 S10G20    29.93F
TOOELE VALLEY  SUNNY     79  43  27 N15       29.95F
WENDOVER       SUNNY     79  25  13 VRB6      29.93F
HEBER CITY       N/A     79  37  22 W6        30.00F
WEST JORDAN    SUNNY     81  42  24 SE13G18   29.97

$$

UTZ011>015-024>027-252000-

CENTRAL/NORTHEAST UTAH

CITY           SKY/WX    TMP DP  RH WIND       PRES   REMARKS
PROVO AIRPORT  SUNNY     80  36  20 W5        29.99F
MOAB/CANYONLAN SUNNY     87  15   7 S15G21    29.98F
DELTA          SUNNY     79  23  12 S9        30.00F
PRICE          SUNNY     82  19   9 SE20G26   30.07F
ROOSEVELT      SUNNY     82  28  14 NW5       30.05F
VERNAL         SUNNY     82  28  14 S8        30.04F

$$

UTZ013>016-019>022-027-252000-

SOUTHERN UTAH

CITY           SKY/WX    TMP DP  RH WIND       PRES   REMARKS
BRYCE CANYON   SUNNY     69  11  10 S21G30    30.23S
CEDAR CITY     SUNNY     78  23  13 S22G33    30.06F
MILFORD        SUNNY     81  18   9 S28G36    30.01F
ST GEORGE      CLEAR     85  30  13 SW6G16    29.94F
HANKSVILLE     SUNNY     88  21   8 SE13G30   30.01F
BLANDING         N/A     78  19  11 SW12G23   30.23F

$$

REGIONAL REPORTS     COLORADO/ARIZONA

CITY           SKY/WX    TMP DP  RH WIND       PRES   REMARKS
CRAIG, CO      SUNNY     82  33  17 S10       30.11F
GRAND JUNCTION SUNNY     87  24  10 W7        30.00F
RIFLE, CO      SUNNY     85  24  11 W10       30.07F
MONTROSE, CO   SUNNY     83  15   8 VRB6      30.09F
CORTEZ, CO     SUNNY     81  14   8 SW10G20   30.17F
COLORADO CITY    N/A     82  16   8 S14G28    30.11S
PAGE, AZ       SUNNY     83  19   9 VRB5      30.03F
GRAND CANYON   SUNNY     75  14  10 SW18G28   30.21F
KINGMAN, AZ    SUNNY     86  26  11 S29G36    30.01F
FLAGSTAFF, AZ  SUNNY     70  19  14 SW15      30.25F

$$

REGIONAL REPORTS    NEVADA/IDAHO/WYOMING

CITY           SKY/WX    TMP DP  RH WIND       PRES   REMARKS
LAS VEGAS, NV  MOSUNNY   87  31  13 S12G24    29.89F
ELY, NY        SUNNY     71  28  20 S23G36    30.03F
ELKO, NV       MOSUNNY   77  30  17 S14       29.93F
POCATELLO, ID  MOSUNNY   80  52  37 VRB7      29.95F
BURLEY, ID     SUNNY     83  46  27 CALM      29.89F
FORT BRIDGER,    N/A     75  36  23 NE8       30.16F
EVANSTON, WY   SUNNY     72  34  24 CALM      30.12F
ROCK SPRINGS,  SUNNY     77  26  15 SW15G22   30.12F

$$




USA.gov is the U.S. government's official web portal to all federal, state and local government web resources and services.